Overview Statistics Trail Chart Weather Telemetry Raw packets
 

This is the latest recevied weather packets stored in our database for station/object W5ALL-WX. If no packets are shown the sender has not sent any weather packets the latest 10 day(s).

<< 12 13 14 15 16 17 18 >>
Time Temp. Humidity Pressure Rain* Wind** Luminosity Snow
1777961715 19.44° C 26% 1011.9 hPa 0 mm - - -
1777961415 20° C 26% 1011.9 hPa 0 mm - - -
1777961115 20° C 26% 1011.9 hPa 0 mm - - -
1777960815 20° C 24% 1011.9 hPa 0 mm - - -
1777960515 20.56° C 23% 1011.9 hPa 0 mm - - -
1777960215 20.56° C 23% 1012 hPa 0 mm - - -
1777959915 21.11° C 22% 1012 hPa 0 mm - - -
1777959615 21.11° C 21% 1011.8 hPa 0 mm - - -
1777959315 21.11° C 21% 1011.8 hPa 0 mm - - -
1777959015 21.11° C 21% 1011.7 hPa 0 mm - - -
1777958715 21.11° C 20% 1011.8 hPa 0 mm - - -
1777958415 21.67° C 21% 1011.8 hPa 0 mm - - -
1777958115 21.67° C 21% 1011.8 hPa 0 mm - - -
1777957815 21.11° C 21% 1011.9 hPa 0 mm - - -
1777957515 21.11° C 22% 1011.9 hPa 0 mm - - -
1777957215 21.11° C 23% 1011.9 hPa 0 mm - - -
1777956915 21.11° C 23% 1012 hPa 0 mm - - -
1777956615 21.11° C 22% 1012 hPa 0 mm - - -
1777956315 21.11° C 22% 1011.9 hPa 0 mm - - -
1777956015 21.11° C 22% 1011.9 hPa 0 mm - - -
1777955715 21.67° C 22% 1012 hPa 0 mm - - -
1777955415 21.67° C 21% 1012 hPa 0 mm - - -
1777955115 22.22° C 20% 1012 hPa 0 mm - - -
1777954815 22.22° C 19% 1012 hPa 0 mm - - -
1777954515 22.22° C 20% 1012 hPa 0 mm - - -

* Rain latest hour (hover to see other rain measurements)
** Current wind speed in m/s (hover to see current wind gust speed)